Location: Newark
(45.5000°N, 11.4167°E)
Time: 15:59:55
(UTC+00:00)

A-11 Canister half - Pass Details

Date: 26 August 2019
Orbit: 1514 x 1686 km, 47.2° (Epoch: 14 September)

Event Time Altitude Azimuth Distance (km) Brightness Sun altitude
Rises 14:27:44 0° 198° (SSW) 4,643 12.0 36.2°
Reaches altitude 10° 14:31:15 10° 187° (S) 3,672 11.5 35.7°
Maximum altitude 14:38:44 29° 132° (SE) 2,545 10.2 34.5°
Drops below altitude 10° 14:46:22 10° 78° (ENE) 3,764 10.6 33.2°
Sets 14:50:01 0° 68° (ENE) 4,777 11.1 32.6°
